Location: Dehesa de la Cepeda
(40.6574°N, 4.3013°W)
Time: 21:07:39
(UTC+00:00)

Vanguard 2 Rocket - Pass Details

Date: 08 August 2021
Orbit: 556 x 3324 km, 32.9° (Epoch: 19 September)

Event Time Altitude Azimuth Distance (km) Brightness Sun altitude
Rises 05:26:57 0° 239° (WSW) 4,255 9.7 0.2°
Reaches altitude 10° 05:30:47 10° 229° (SW) 2,850 8.9 0.9°
Maximum altitude 05:36:07 28° 172° (S) 1,414 7.8 1.9°
Drops below altitude 10° 05:39:58 10° 113° (ESE) 2,010 9.5 2.6°
Sets 05:42:12 0° 100° (E) 2,797 10.7 3.0°
